Regional Weather Roundup
Issued by NWS Little Rock, AR

Home | Current Version | Previous Version | Graphics & Text | Print | Product List | Glossary On
Versions: 1 2 3 4 5 6 7 8 9 10 11 12 13 14 15 16 17 18 19 20 21 22 23 24 25 26 27 28 29 30 31 32 33 34 35 36 37 38 39 40 41 42 43 44 45 46 47 48 49 50
063
ASUS44 KLZK 030705
RWRLZK

WEATHER ROUNDUP FOR ARKANSAS
NATIONAL WEATHER SERVICE LITTLE ROCK AR
100 AM CST SAT DEC 03 2016

NOTE: "FAIR" INDICATES FEW OR NO CLOUDS BELOW 12,000 FEET WITH NO
SIGNIFICANT WEATHER AND/OR OBSTRUCTIONS TO VISIBILITY.

ARZ001-003-010-029-030800-
NORTHWEST ARKANSAS

CITY           SKY/WX    TMP DP  RH WIND       PRES   REMARKS
FAYETTEVILLE   CLOUDY    43  36  76 CALM      30.25F
FORT SMITH     CLOUDY    50  36  58 NE5       30.24F
HARRISON       CLOUDY    43  33  68 CALM      30.29S
BENTONVILLE    CLOUDY    48  28  46 E6        30.27S
ROGERS         MOCLDY    48  32  53 E7        30.27F
SILOAM SPGS    CLOUDY    48  30  49 E3        30.25F
HIGHFILL       MOCLDY    47  34  60 NE5       30.25F
$$

ARZ004-005-016-030800-
NORTH CENTRAL ARKANSAS

CITY           SKY/WX    TMP DP  RH WIND       PRES   REMARKS
BATESVILLE     PTCLDY    45  36  70 CALM      30.33R
FLIPPIN        CLOUDY    45  30  57 NE3       30.29R
MTN HOME       CLOUDY    43  32  65 E3        30.31S
$$

ARZ040-041-030800-
WEST CENTRAL ARKANSAS

CITY           SKY/WX    TMP DP  RH WIND       PRES   REMARKS
MENA           CLOUDY    50  39  66 CALM      30.22F
MOUNT IDA      CLOUDY    47  40  76 CALM      30.21F
$$

ARZ009-017-025-026-028-030800-
NORTHEAST ARKANSAS

CITY           SKY/WX    TMP DP  RH WIND       PRES   REMARKS
CORNING        FAIR      41  37  87 NE8       30.34R
JONESBORO      CLOUDY    45  36  70 NE8       30.32R
NEWPORT        CLOUDY    44  40  85 N6        30.32R
WALNUT RIDGE   PTCLDY    43  34  70 N7        30.32S
BLYTHEVILLE    CLOUDY    45  36  70 NE8       30.32S
$$

ARZ022-023-033-042-044-030800-
CENTRAL ARKANSAS

CITY           SKY/WX    TMP DP  RH WIND       PRES   REMARKS
LITTLE ROCK    CLOUDY    48  39  71 NE8       30.27F
N LITTLE ROCK    N/A     49  39  69 E6        30.27F
JACKSONVILLE   CLOUDY    48  41  76 NE8       30.26F
SEARCY         CLOUDY    47  40  76 N6        30.32R
HOT SPRINGS    CLOUDY    52  35  52 CALM      30.24F
RUSSELLVILLE   CLOUDY    51  36  56 E6        30.26F
$$

ARZ036-030800-
EAST ARKANSAS

CITY           SKY/WX    TMP DP  RH WIND       PRES   REMARKS
WEST MEMPHIS   CLOUDY    48  34  58 E5        30.29F
$$

ARZ050-053-066-070-073-030800-
SOUTHWEST ARKANSAS

CITY           SKY/WX    TMP DP  RH WIND       PRES   REMARKS
ARKADELPHIA    CLOUDY    50  40  68 NE7       30.24F
CAMDEN         CLOUDY    50  36  57 E3        30.23S
TEXARKANA      CLOUDY    52  37  56 CALM      30.20R
EL DORADO      LGT RAIN  53  36  52 E8        30.23S
DE QUEEN       CLOUDY    54  36  50 E7        30.19F
$$

ARZ056-057-069-030800-
SOUTHEAST ARKANSAS

CITY           SKY/WX    TMP DP  RH WIND       PRES   REMARKS
PINE BLUFF     CLOUDY    50  38  63 NE5       30.24F
STUTTGART      PTCLDY    48  37  66 NE7       30.27F
MONTICELLO     CLOUDY    47  40  76 CALM      30.25R

$$






USA.gov is the U.S. government's official web portal to all federal, state and local government web resources and services.